Lid_Strength_Index
7 9 10 8 7 6 5 4 4 5 3 4 5 2 2 1 -0 -1 -1 -1 -2 -1 -1 -1 -1 -1 -1 -1 -2 -2 -2 -2
8 9 7 6 5 6 5 5 4 4 5 3 2 2 1 -0 -0 -0 -0 -1 -1 -1 -1 -1 -1 -1 -1 -1 -2 -2 -2 -2
9 9 6 5 5 6 6 6 5 4 5 4 2 1 0 0 -0 -0 -0 -1 -1 -1 -1 -1 -1 -1 -1 -1 -2 -2 -2 -2
10 9 6 5 6 7 6 5 5 5 5 4 1 1 1 -0 -0 -0 -0 -1 -1 -1 -1 -1 -1 -1 -1 -1 -1 -2 -2 -2
10 9 8 6 5 8 7 6 5 3 5 3 2 1 0 -0 -0 -0 -1 -1 -1 -1 -1 -1 -1 -1 -1 -1 -1 -1 -1 -1
9 10 9 6 5 7 6 6 3 3 5 5 2 1 0 0 0 -0 -0 -0 -1 -1 -1 -1 -1 -1 -1 -1 -1 -1 -1 -1
8 9 8 6 6 5 5 5 4 3 3 2 2 1 1 1 1 0 0 -0 -1 -1 -1 -1 -1 -1 -1 -1 -1 -1 -1 -1
6 6 8 7 5 5 6 6 4 4 3 2 1 2 2 2 2 1 1 0 -0 -1 -1 -1 -1 -2 -1 -1 -1 -2 -2 -2
5 5 6 7 6 4 5 6 4 4 3 3 2 2 2 2 1 1 0 0 -0 -1 -1 -1 -1 -1 -1 -1 -1 -1 -2 -2
5 4 6 7 6 5 5 4 4 4 3 3 2 2 2 2 1 1 1 0 -0 -1 -1 -1 -1 -0 -1 -0 -1 -1 -1 -2
5 5 5 5 6 5 4 3 3 3 3 3 2 2 1 1 1 1 1 0 -0 -1 -1 -1 -0 -1 -1 -0 -0 -1 -1 -2
5 6 5 6 6 5 4 3 3 3 3 3 3 2 2 1 1 1 0 0 -0 -1 -1 -1 -0 -1 -0 -1 -1 -1 -1 -1
6 6 6 5 7 7 4 3 4 3 3 3 3 2 2 1 1 0 0 -0 -0 -1 -1 -1 -1 -0 -0 -1 -1 -0 -1 -1
7 5 6 6 10 6 4 4 4 4 3 3 3 2 1 1 1 0 0 -0 -1 -0 -1 -1 -1 -1 -0 -1 -1 -1 -1 -1
8 5 6 8 9 6 4 4 4 4 4 3 3 2 1 1 1 0 -0 -0 -0 -1 -0 -1 -1 -0 -1 -1 -0 -0 -1 -1
9 6 6 7 9 7 5 5 5 5 4 4 3 3 2 1 1 1 0 -0 -0 -0 -1 -1 -0 -1 -0 -0 -0 -0 -0 -0
8 7 7 7 7 6 6 6 5 5 5 4 4 3 2 2 1 1 0 -0 0 0 -0 0 0 1 1 1 1 0 -0 -1
8 7 7 7 8 6 5 5 5 5 5 4 4 3 2 2 1 1 0 0 0 -0 -0 0 0 0 0 0 0 0 -0 -0
10 8 7 8 9 7 5 5 4 5 5 5 4 4 3 3 2 1 1 0 0 0 -0 -0 -0 0 0 0 0 1 1 0
9 9 12 8 13 8 7 6 5 5 5 5 5 4 3 3 3 1 1 0 0 -0 -0 -0 -0 0 1 2 2 1 1 0